Weather History for Bentonville, AR

Change the Weather History Date:

Wednesday, May 29, 2013

  Actual Average Record
Temperature  
Mean Temperature 74 °F -  
Max Temperature 78 °F 78 °F 91 °F (1953)
Min Temperature 69 °F 56 °F 40 °F (1984)
Cooling Degree Days 8    
Growing Degree Days 24 (Base 50)    
Moisture  
Dew Point 63 °F    
Average Humidity 66    
Maximum Humidity 78    
Minimum Humidity 57    
Precipitation  
Precipitation 0.00 in - - ()
Sea Level Pressure  
Sea Level Pressure 29.86 in    
Wind  
Wind Speed 11 mph (South)    
Max Wind Speed 22 mph    
Max Gust Speed 29 mph    
Visibility 10 miles    
Events      
Averages and records for this station are not official NWS values.
T = Trace of Precipitation, MM = Missing Value Source: NWS Daily Summary

Daily Weather History Graph

Daily Weather History Graph

Search for Another Location

Airport:

Trip Planner

Search our weather history database for the weather conditions in past years. The results will help you decide how hot, cold, wet, or windy it might be!

Date:

Astronomy

May. 29, 2013 Rise Set
Actual Time 6:01 AM CDT 8:27 PM CDT
Civil Twilight 5:31 AM CDT 8:57 PM CDT
Nautical Twilight 4:55 AM CDT 9:33 PM CDT
Astronomical Twilight 4:14 AM CDT 10:14 PM CDT
Moon No Moon Rise 10:57 AM CDT (5/29)
Length of Visible Light 15h 25m
Length of Day
14h 25m
Waning Gibbous, 73% of the Moon is Illuminated
May 29
Waning Gibbous
May 31
Last Quarter
Jun 8
New
Jun 16
First Quarter
Jun 23
Full

Hourly Weather History & Observations

Time (CDT) Temp. Dew Point Humidity Pressure Visibility Wind Dir Wind Speed Gust Speed Precip Events Conditions
12:15 AM 73.4 °F 62.6 °F 69% 29.86 in 10.0 mi SSE 11.5 mph - N/A   Clear
12:35 AM 73.4 °F 62.6 °F 69% 29.86 in 10.0 mi South 10.4 mph - N/A   Clear
12:55 AM 73.4 °F 62.6 °F 69% 29.86 in 10.0 mi SSE 12.7 mph - N/A   Clear
1:15 AM 71.6 °F 62.6 °F 73% 29.86 in 10.0 mi SSE 9.2 mph - N/A   Clear
1:35 AM 71.6 °F 62.6 °F 73% 29.87 in 10.0 mi South 9.2 mph - N/A   Clear
1:55 AM 71.6 °F 62.6 °F 73% 29.87 in 10.0 mi South 8.1 mph - N/A   Clear
2:16 AM 71.6 °F 62.6 °F 73% 29.87 in 10.0 mi South 6.9 mph - N/A   Clear
2:35 AM 71.6 °F 62.6 °F 73% 29.86 in 10.0 mi SSE 8.1 mph - N/A   Clear
2:55 AM 71.6 °F 62.6 °F 73% 29.87 in 10.0 mi South 8.1 mph - N/A   Clear
3:15 AM 71.6 °F 62.6 °F 73% 29.87 in 10.0 mi South 8.1 mph - N/A   Clear
3:35 AM 71.6 °F 62.6 °F 73% 29.87 in 10.0 mi South 6.9 mph - N/A   Clear
3:55 AM 71.6 °F 62.6 °F 73% 29.86 in 10.0 mi South 8.1 mph - N/A   Clear
4:15 AM 71.6 °F 62.6 °F 73% 29.86 in 10.0 mi South 8.1 mph - N/A   Clear
4:35 AM 71.6 °F 62.6 °F 73% 29.86 in 10.0 mi South 8.1 mph - N/A   Clear
4:55 AM 71.6 °F 62.6 °F 73% 29.87 in 10.0 mi South 6.9 mph - N/A   Clear
5:15 AM 71.6 °F 62.6 °F 73% 29.89 in 10.0 mi South 6.9 mph - N/A   Clear
5:35 AM 71.6 °F 62.6 °F 73% 29.89 in 10.0 mi South 6.9 mph - N/A   Clear
6:15 AM 71.6 °F 62.6 °F 73% 29.89 in 10.0 mi South 8.1 mph 16.1 mph N/A   Clear
6:35 AM 69.8 °F 62.6 °F 78% 29.89 in 10.0 mi South 6.9 mph - N/A   Clear
6:55 AM 71.6 °F 62.6 °F 73% 29.90 in 10.0 mi South 8.1 mph - N/A   Clear
7:15 AM 71.6 °F 62.6 °F 73% 29.90 in 10.0 mi South 9.2 mph - N/A   Clear
7:35 AM 71.6 °F 62.6 °F 73% 29.90 in 10.0 mi South 9.2 mph 16.1 mph N/A   Clear
7:55 AM 71.6 °F 62.6 °F 73% 29.90 in 10.0 mi South 8.1 mph - N/A   Clear
8:16 AM 73.4 °F 62.6 °F 69% 29.90 in 10.0 mi South 9.2 mph 17.3 mph N/A   Clear
8:35 AM 73.4 °F 62.6 °F 69% 29.90 in 10.0 mi South 13.8 mph 19.6 mph N/A   Clear
9:15 AM 75.2 °F 62.6 °F 65% 29.91 in 10.0 mi South 11.5 mph 18.4 mph N/A   Clear
9:35 AM 75.2 °F 62.6 °F 65% 29.91 in 10.0 mi South 16.1 mph 20.7 mph N/A   Mostly Cloudy
9:55 AM 75.2 °F 62.6 °F 65% 29.91 in 10.0 mi South 16.1 mph 24.2 mph N/A   Overcast
10:15 AM 75.2 °F 62.6 °F 65% 29.90 in 10.0 mi South 16.1 mph 25.3 mph N/A   Mostly Cloudy
10:35 AM 75.2 °F 62.6 °F 65% 29.90 in 10.0 mi South 18.4 mph 24.2 mph N/A   Mostly Cloudy
10:55 AM 75.2 °F 62.6 °F 65% 29.90 in 10.0 mi South 15.0 mph 20.7 mph N/A   Mostly Cloudy
11:15 AM 77.0 °F 62.6 °F 61% 29.90 in 10.0 mi South 12.7 mph 23.0 mph N/A   Mostly Cloudy
11:35 AM 77.0 °F 62.6 °F 61% 29.90 in 10.0 mi South 13.8 mph 23.0 mph N/A   Mostly Cloudy
11:55 AM 77.0 °F 62.6 °F 61% 29.90 in 10.0 mi South 11.5 mph 21.9 mph N/A   Overcast
12:15 PM 77.0 °F 62.6 °F 61% 29.91 in 10.0 mi South 15.0 mph 18.4 mph N/A   Overcast
12:35 PM 77.0 °F 62.6 °F 61% 29.91 in 10.0 mi South 13.8 mph 21.9 mph N/A   Overcast
12:55 PM 77.0 °F 62.6 °F 61% 29.90 in 10.0 mi South 13.8 mph 21.9 mph N/A   Overcast
1:15 PM 78.8 °F 64.4 °F 61% 29.89 in 10.0 mi South 12.7 mph 19.6 mph N/A   Scattered Clouds
1:35 PM 78.8 °F 64.4 °F 61% 29.87 in 10.0 mi SSE 16.1 mph 24.2 mph N/A   Partly Cloudy
1:56 PM 78.8 °F 64.4 °F 61% 29.88 in 10.0 mi South 12.7 mph 19.6 mph N/A   Clear
2:15 PM 78.8 °F 62.6 °F 57% 29.88 in 10.0 mi South 13.8 mph 24.2 mph N/A   Mostly Cloudy
2:35 PM 78.8 °F 62.6 °F 57% 29.88 in 10.0 mi South 12.7 mph 21.9 mph N/A   Overcast
2:55 PM 78.8 °F 62.6 °F 57% 29.87 in 10.0 mi South 17.3 mph 24.2 mph N/A   Scattered Clouds
3:15 PM 78.8 °F 64.4 °F 61% 29.86 in 10.0 mi South 12.7 mph 20.7 mph N/A   Scattered Clouds
3:35 PM 78.8 °F 64.4 °F 61% 29.85 in 10.0 mi South 12.7 mph 23.0 mph N/A   Partly Cloudy
3:55 PM 78.8 °F 64.4 °F 61% 29.85 in 10.0 mi South 11.5 mph 18.4 mph N/A   Partly Cloudy
4:15 PM 78.8 °F 64.4 °F 61% 29.84 in 10.0 mi South 11.5 mph 18.4 mph N/A   Mostly Cloudy
4:35 PM 78.8 °F 64.4 °F 61% 29.83 in 10.0 mi South 12.7 mph 20.7 mph N/A   Mostly Cloudy
4:55 PM 78.8 °F 64.4 °F 61% 29.83 in 10.0 mi South 10.4 mph 17.3 mph N/A   Scattered Clouds
5:15 PM 78.8 °F 64.4 °F 61% 29.81 in 10.0 mi South 11.5 mph 17.3 mph N/A   Clear
5:35 PM 78.8 °F 64.4 °F 61% 29.81 in 10.0 mi South 9.2 mph - N/A   Scattered Clouds
5:55 PM 78.8 °F 64.4 °F 61% 29.80 in 10.0 mi SSE 15.0 mph 19.6 mph N/A   Mostly Cloudy
6:16 PM 78.8 °F 64.4 °F 61% 29.78 in 10.0 mi SSE 11.5 mph 18.4 mph N/A   Partly Cloudy
6:35 PM 78.8 °F 64.4 °F 61% 29.77 in 10.0 mi SSE 21.9 mph 28.8 mph N/A   Partly Cloudy
6:55 PM 77.0 °F 64.4 °F 65% 29.78 in 10.0 mi SSE 15.0 mph 19.6 mph N/A   Partly Cloudy
7:15 PM 78.8 °F 62.6 °F 57% 29.78 in 10.0 mi SSE 10.4 mph 16.1 mph N/A   Partly Cloudy
7:35 PM 77.0 °F 64.4 °F 65% 29.78 in 10.0 mi SSE 12.7 mph - N/A   Scattered Clouds
7:55 PM 77.0 °F 62.6 °F 61% 29.79 in 10.0 mi SSE 17.3 mph 21.9 mph N/A   Scattered Clouds
8:15 PM 75.2 °F 62.6 °F 65% 29.80 in 10.0 mi South 12.7 mph 24.2 mph N/A   Partly Cloudy
8:35 PM 75.2 °F 62.6 °F 65% 29.80 in 10.0 mi SSE 10.4 mph 19.6 mph N/A   Clear
8:55 PM 75.2 °F 62.6 °F 65% 29.81 in 10.0 mi SSE 12.7 mph 20.7 mph N/A   Clear
9:16 PM 75.2 °F 60.8 °F 61% 29.81 in 10.0 mi SSE 12.7 mph 20.7 mph N/A   Clear
9:35 PM 75.2 °F 60.8 °F 61% 29.81 in 10.0 mi SSE 11.5 mph - N/A   Clear
10:15 PM 73.4 °F 62.6 °F 69% 29.82 in 10.0 mi SSE 12.7 mph - N/A   Clear
10:35 PM 73.4 °F 62.6 °F 69% 29.80 in 10.0 mi SSE 13.8 mph 19.6 mph N/A   Clear
10:55 PM 73.4 °F 62.6 °F 69% 29.80 in 10.0 mi SSE 11.5 mph 19.6 mph N/A   Clear
11:15 PM 73.4 °F 62.6 °F 69% 29.80 in 10.0 mi SSE 16.1 mph 21.9 mph N/A   Clear
11:36 PM 73.4 °F 62.6 °F 69% 29.80 in 10.0 mi SSE 12.7 mph 20.7 mph N/A   Clear
11:55 PM 73.4 °F 62.6 °F 69% 29.80 in 10.0 mi SSE 12.7 mph 20.7 mph N/A   Clear